Wheaton NDB, MN

9:09 PM CST on January 17, 2018 (GMT -0600)
Wheaton Municipal

Weather History for KETH - August, 2014

Change the Weather History Date:

Monday, August 11, 2014

  Actual Average Record
Temperature  
Mean Temperature 62 °F -  
Max Temperature 71 °F 83 °F 97 °F (1988)
Min Temperature 53 °F 55 °F 33 °F (2003)
Degree Days  
Heating Degree Days 3    
Growing Degree Days 12 (Base 50)    
Moisture  
Dew Point 51 °F    
Average Humidity 69    
Maximum Humidity 88    
Minimum Humidity 43    
Precipitation  
Precipitation 0.00 in - - ()
Sea Level Pressure  
Sea Level Pressure 30.16 in    
Wind  
Wind Speed 10 mph (NNW)    
Max Wind Speed 18 mph    
Max Gust Speed 26 mph    
Visibility 10 miles    
Events      
Averages and records for this station are not official NWS values.
T = Trace of Precipitation, MM = Missing Value Source: NWS Daily Summary

Daily Weather History Graph

Daily Weather History Graph

Search for Another Location

Airport or City:

Trip Planner

Search our weather history database for the weather conditions in past years. The results will help you decide how hot, cold, wet, or windy it might be!

Date:

Astronomy

Aug. 11, 2014 Rise Set
Actual Time 6:21 AM CDT 8:40 PM CDT
Civil Twilight 5:48 AM CDT 9:13 PM CDT
Nautical Twilight 5:07 AM CDT 9:54 PM CDT
Astronomical Twilight 4:20 AM CDT 10:40 PM CDT
Moon 9:01 PM CDT (8/11) 7:34 AM CDT (8/11)
Length of Visible Light 15h 25m
Length of Day
14h 19m
Full, 99% of the Moon is Illuminated
Aug 11
Full
Aug 17
Last Quarter
Aug 25
New
Sep 2
First Quarter
Sep 8
Full

Hourly Weather History & Observations

Time (CDT) Temp. Dew Point Humidity Pressure Visibility Wind Dir Wind Speed Gust Speed Precip Events Conditions
12:16 AM 57.2 °F 53.6 °F 88% 30.12 in 10.0 mi WNW 5.8 mph - N/A   Clear
12:36 AM 57.2 °F 53.6 °F 88% 30.12 in 10.0 mi NW 5.8 mph - N/A   Clear
12:56 AM 59.0 °F 53.6 °F 82% 30.12 in 10.0 mi NW 8.1 mph - N/A   Clear
1:16 AM 59.0 °F 53.6 °F 82% 30.12 in 10.0 mi NW 6.9 mph - N/A   Clear
1:36 AM 57.2 °F 53.6 °F 88% 30.12 in 10.0 mi NW 9.2 mph - N/A   Clear
1:56 AM 57.2 °F 53.6 °F 88% 30.12 in 10.0 mi NW 10.4 mph - N/A   Clear
2:16 AM 57.2 °F 53.6 °F 88% 30.12 in 10.0 mi NW 8.1 mph - N/A   Clear
2:36 AM 57.2 °F 53.6 °F 88% 30.12 in 10.0 mi NW 8.1 mph - N/A   Clear
3:16 AM 57.2 °F 51.8 °F 82% 30.12 in 10.0 mi NW 9.2 mph - N/A   Clear
3:36 AM 57.2 °F 51.8 °F 82% 30.13 in 10.0 mi NW 8.1 mph - N/A   Clear
3:56 AM 57.2 °F 51.8 °F 82% 30.13 in 10.0 mi NW 10.4 mph - N/A   Clear
4:16 AM 55.4 °F 51.8 °F 88% 30.13 in 10.0 mi NW 9.2 mph - N/A   Clear
4:36 AM 55.4 °F 51.8 °F 88% 30.13 in 10.0 mi NW 10.4 mph - N/A   Clear
5:16 AM 55.4 °F 51.8 °F 88% 30.14 in 10.0 mi NW 9.2 mph 17.3 mph N/A   Clear
5:36 AM 55.4 °F 51.8 °F 88% 30.14 in 10.0 mi NW 10.4 mph - N/A   Clear
5:56 AM 55.4 °F 51.8 °F 88% 30.14 in 10.0 mi NW 10.4 mph - N/A   Clear
6:16 AM 55.4 °F 51.8 °F 88% 30.14 in 10.0 mi NW 10.4 mph - N/A   Scattered Clouds
6:36 AM 55.4 °F 51.8 °F 88% 30.14 in 10.0 mi NW 9.2 mph - N/A   Scattered Clouds
6:56 AM 55.4 °F 51.8 °F 88% 30.15 in 10.0 mi NW 8.1 mph - N/A   Clear
7:16 AM 55.4 °F 51.8 °F 88% 30.15 in 10.0 mi NW 11.5 mph 16.1 mph N/A   Clear
7:36 AM 57.2 °F 51.8 °F 82% 30.16 in 10.0 mi NW 11.5 mph - N/A   Clear
7:56 AM 57.2 °F 51.8 °F 82% 30.16 in 10.0 mi NW 12.7 mph 23.0 mph N/A   Clear
8:16 AM 59.0 °F 53.6 °F 82% 30.17 in 10.0 mi NW 15.0 mph 19.6 mph N/A   Clear
8:36 AM 59.0 °F 53.6 °F 82% 30.18 in 10.0 mi NNW 12.7 mph 18.4 mph N/A   Clear
8:56 AM 60.8 °F 53.6 °F 77% 30.18 in 10.0 mi NNW 11.5 mph 19.6 mph N/A   Clear
9:16 AM 62.6 °F 53.6 °F 72% 30.18 in 10.0 mi NNW 11.5 mph 18.4 mph N/A   Clear
9:36 AM 62.6 °F 55.4 °F 77% 30.18 in 10.0 mi NNW 15.0 mph 20.7 mph N/A   Clear
9:56 AM 64.4 °F 55.4 °F 73% 30.19 in 10.0 mi NNW 12.7 mph 17.3 mph N/A   Clear
10:16 AM 64.4 °F 55.4 °F 73% 30.19 in 10.0 mi NW 12.7 mph 17.3 mph N/A   Clear
10:36 AM 66.2 °F 55.4 °F 68% 30.20 in 10.0 mi NW 11.5 mph - N/A   Clear
10:56 AM 66.2 °F 55.4 °F 68% 30.20 in 10.0 mi NW 13.8 mph 18.4 mph N/A   Clear
11:16 AM 66.2 °F 55.4 °F 68% 30.20 in 10.0 mi NW 11.5 mph 19.6 mph N/A   Clear
11:36 AM 68.0 °F 55.4 °F 64% 30.20 in 10.0 mi NNW 12.7 mph 19.6 mph N/A   Scattered Clouds
11:56 AM 68.0 °F 53.6 °F 60% 30.19 in 10.0 mi NNW 18.4 mph 25.3 mph N/A   Scattered Clouds
12:16 PM 69.8 °F 51.8 °F 53% 30.20 in 10.0 mi NNW 13.8 mph - N/A   Scattered Clouds
12:36 PM 69.8 °F 51.8 °F 53% 30.20 in 10.0 mi NNW 16.1 mph 24.2 mph N/A   Scattered Clouds
12:56 PM 69.8 °F 51.8 °F 53% 30.19 in 10.0 mi NNW 17.3 mph 23.0 mph N/A   Clear
1:16 PM 69.8 °F 51.8 °F 53% 30.19 in 10.0 mi NNW 17.3 mph 23.0 mph N/A   Scattered Clouds
1:36 PM 69.8 °F 48.2 °F 46% 30.18 in 10.0 mi NW 17.3 mph 23.0 mph N/A   Clear
1:56 PM 71.6 °F 48.2 °F 43% 30.19 in 10.0 mi NW 12.7 mph 24.2 mph N/A   Clear
2:16 PM 71.6 °F 51.8 °F 50% 30.18 in 10.0 mi NNW 13.8 mph 26.5 mph N/A   Clear
2:36 PM 71.6 °F 51.8 °F 50% 30.18 in 10.0 mi NNW 16.1 mph 26.5 mph N/A   Scattered Clouds
2:56 PM 71.6 °F 51.8 °F 50% 30.18 in 10.0 mi North 18.4 mph 24.2 mph N/A   Scattered Clouds
3:16 PM 71.6 °F 51.8 °F 50% 30.18 in 10.0 mi NW 16.1 mph 23.0 mph N/A   Scattered Clouds
3:36 PM 71.6 °F 51.8 °F 50% 30.17 in 10.0 mi NNW 13.8 mph 24.2 mph N/A   Scattered Clouds
3:56 PM 71.6 °F 51.8 °F 50% 30.17 in 10.0 mi NNW 16.1 mph 21.9 mph N/A   Scattered Clouds
4:16 PM 71.6 °F 50.0 °F 46% 30.17 in 10.0 mi North 13.8 mph 20.7 mph N/A   Scattered Clouds
4:36 PM 71.6 °F 50.0 °F 46% 30.16 in 10.0 mi NNW 15.0 mph 20.7 mph N/A   Mostly Cloudy
4:56 PM 71.6 °F 50.0 °F 46% 30.16 in 10.0 mi North 13.8 mph 21.9 mph N/A   Scattered Clouds
5:36 PM 71.6 °F 48.2 °F 43% 30.16 in 10.0 mi North 13.8 mph 21.9 mph N/A   Scattered Clouds
5:56 PM 71.6 °F 50.0 °F 46% 30.16 in 10.0 mi NNW 10.4 mph 18.4 mph N/A   Scattered Clouds
6:16 PM 71.6 °F 48.2 °F 43% 30.16 in 10.0 mi NNW 13.8 mph 20.7 mph N/A   Scattered Clouds
6:36 PM 69.8 °F 48.2 °F 46% 30.16 in 10.0 mi NNW 12.7 mph 18.4 mph N/A   Clear
6:56 PM 69.8 °F 48.2 °F 46% 30.15 in 10.0 mi North 11.5 mph 18.4 mph N/A   Clear
7:16 PM 68.0 °F 48.2 °F 49% 30.15 in 10.0 mi North 9.2 mph - N/A   Clear
7:36 PM 68.0 °F 48.2 °F 49% 30.15 in 10.0 mi North 9.2 mph - N/A   Clear
7:56 PM 66.2 °F 48.2 °F 52% 30.15 in 10.0 mi North 5.8 mph - N/A   Clear
8:16 PM 64.4 °F 48.2 °F 56% 30.15 in 10.0 mi North 5.8 mph - N/A   Clear
8:36 PM 62.6 °F 50.0 °F 63% 30.16 in 10.0 mi North 4.6 mph - N/A   Clear
8:56 PM 60.8 °F 48.2 °F 63% 30.16 in 10.0 mi NNW 4.6 mph - N/A   Clear
9:16 PM 59.0 °F 48.2 °F 67% 30.16 in 10.0 mi NNW 4.6 mph - N/A   Clear
9:36 PM 59.0 °F 48.2 °F 67% 30.16 in 10.0 mi Calm Calm - N/A   Clear
9:56 PM 59.0 °F 48.2 °F 67% 30.17 in 10.0 mi North 3.5 mph - N/A   Clear
10:16 PM 57.2 °F 48.2 °F 72% 30.16 in 10.0 mi NNW 3.5 mph - N/A   Clear
10:36 PM 57.2 °F 48.2 °F 72% 30.16 in 10.0 mi Calm Calm - N/A   Clear
10:56 PM 57.2 °F 48.2 °F 72% 30.17 in 10.0 mi Calm Calm - N/A   Clear
11:16 PM 55.4 °F 50.0 °F 82% 30.16 in 10.0 mi Calm Calm - N/A   Clear
11:36 PM 53.6 °F 50.0 °F 88% 30.17 in 10.0 mi Calm Calm - N/A   Clear
11:56 PM 53.6 °F 50.0 °F 88% 30.16 in 10.0 mi Calm Calm - N/A   Clear